COSMOS 1275 DEB, 42230

Orbit data source: Space-Track

COSMOS 1275 DEB, 42230 is space debris in LEO originally from a launch on Thu, 04 Jun 1981 UTC launched from the Plesetsk Missile And Space Complex (PKMTR). Debris objects in space refer to the collection of defunct objects orbiting the Earth. Examples of debris include non-operational satellites, rocket bodies, and fragments generated from explosions, collisions, or faulty payload assembly.

Loading next visibility...
Identifier
42230, 1981-053UW
Orbit
LEO
Country
Flag of CISCIS
Related business
Manufacturer
Unknown
Mission
Spacecraft
Bus & Motor
Unknown
Mass
Unknown
Launch date (UTC)
1981-06-04 (45 years ago)
Launch vehicle
Unknown
Launch site
Plesetsk Missile And Space Complex (PKMTR)
Object type
Payload
Rocket body
Debris
Shape & HBR
Unknown shape, 0.1 m
Radar Cross Section
Small (<0.1 m²)

Expand to show TLE details & history
Last TLE update: 10 hours ago

TLE from 10 hours ago
0 COSMOS 1275 DEB
1 42230U 81053UW  25340.64460077  .00006535  00000-0  33043-2 0  9990
2 42230  82.7489 119.4685 0041430 153.5318 206.7989 14.15582820599755
Epoch: 2025-12-06T15:28Z
TLE epoch observation values (Epoch: 2025-12-06T15:28:13.506Z)
Latitude
-0.00002°
Longitude
171.74285°
Altitude
870.006 km
Speed
7.404 km/s
True Right ascension
07h 57m 52s
True Declination
0° 00' 00"
Sunlit
Object was in full shadow at epoch
Visualization orbit readout
Latitude
Unknown
Longitude
Unknown
Altitude
Unknown
Speed
Unknown
Apparent Right ascension
Unknown
Apparent Declination
Unknown
Sunlit
N/A
Visualization observer readout
Local Sidereal Time
23:22:20
Azimuth
Unknown
Elevation
Unknown
Doppler factor
Unknown
Orbital elements
Apogee altitude
867.325 km
Perigee altitude
807.536 km
Semi-major axis
7,215.568 km
Eccentricity
0.00414
Inclination
82.7489°
RAAN
119.4685°
Arg. of periapsis
153.5318°
True anomaly
206.58584°
Mean anomaly
206.7989°
Eccentric anomaly
206.69227°
Mean motion
3.54109 °/min
Orbital period
101.66 mins
BSTAR
0.0033043
Loading maneuver chart data...
Computing Atmospheric mass density...

Documentation

Showing up to 5 results
|